DW6241 Marysville WA US current weather conditions

sailwx.info

Wind from 310

Air temperature -1.7° C
Dewpoint -2.5° C

Last reported at 2019-Nov-21 07:00 UTC.
Time now 2019-Nov-21 08:16 UTC

Location: N 48°07' W 122°09'.
View on Google Maps.

See reports from other nearby stations

  
Tides and Currents Weather Stations Pressure Air Temp Water Temp Dewpoint Dewpoint Depression Visibility Wind Speed Wind Dir Waves Ship Positions
date/time (UTC)wind fromknots sea level pressurealtimeterstation pressurevisibilityair tempwater tempwave heightnotes
2019-Nov-21 07:00 310 -1.7
2019-Nov-21 06:45 310 -1.7
2019-Nov-21 06:30 310 -1.1
2019-Nov-21 06:15 310 -1.1
2019-Nov-21 06:00 310 -1.1
2019-Nov-21 05:45 310 -1.1
2019-Nov-21 05:30 310 -1.1
2019-Nov-21 05:15 310 -1.1
2019-Nov-21 05:00 310 -0.6
2019-Nov-21 04:45 310 -0.6
2019-Nov-21 04:30 310 -0.6
2019-Nov-21 04:15 310 -0.0
2019-Nov-21 04:00 310 -0.0
2019-Nov-21 03:45 310 -0.0
2019-Nov-21 03:30 310 -0.0
2019-Nov-21 03:15 310 0.6
2019-Nov-21 03:00 310 0.6
2019-Nov-21 02:45 310 1.1
2019-Nov-21 02:30 310 1.1
2019-Nov-21 02:15 334 1.7
2019-Nov-21 02:00 334 1.7
2019-Nov-21 01:45 334 2.2
2019-Nov-21 01:30 334 2.8
2019-Nov-21 01:15 334 3.3
2019-Nov-21 01:00 334 3.9
2019-Nov-21 00:45 334 5.0
2019-Nov-21 00:30 334 6.1
2019-Nov-21 00:15 334 7.2
2019-Nov-21 00:00 334 8.3
2019-Nov-20 23:45 334 8.9
2019-Nov-20 23:30 334 0 gusting 3 9.4
2019-Nov-20 23:15 328 1 gusting 5 10.0
2019-Nov-20 23:00 330 10.0
2019-Nov-20 22:45 332 1 gusting 4 10.6
2019-Nov-20 22:30 333 1 gusting 4 10.6
2019-Nov-20 22:15 324 0 gusting 6 10.6
2019-Nov-20 22:00 346 1 gusting 5 10.6
2019-Nov-20 21:45 342 1 gusting 4 10.6
2019-Nov-20 21:30 334 0 gusting 5 10.6
2019-Nov-20 21:15 290 2 gusting 6 11.1
2019-Nov-20 21:00 282 11.1
2019-Nov-20 20:45 252 0 gusting 3 11.1
2019-Nov-20 20:30 322 10.6
2019-Nov-20 20:15 327 1 gusting 3 10.0
2019-Nov-20 20:00 342 9.4
2019-Nov-20 19:45 328 9.4
2019-Nov-20 19:30 284 8.3
2019-Nov-20 19:15 233 8.3
2019-Nov-20 19:00 345 7.2
2019-Nov-20 18:45 345 6.7
2019-Nov-20 18:30 345 5.0
2019-Nov-20 18:15 345 4.4
2019-Nov-20 18:00 345 3.3
2019-Nov-20 17:45 346 2.2
2019-Nov-20 17:30 346 -0.0
2019-Nov-20 17:15 344 -0.6
2019-Nov-20 17:00 344 -0.6
2019-Nov-20 16:45 344 -0.6
2019-Nov-20 16:30 344 -1.1
2019-Nov-20 16:15 344 -1.1
2019-Nov-20 16:00 344 -1.1
2019-Nov-20 15:45 344 -1.1
2019-Nov-20 15:30 344 -1.1
2019-Nov-20 15:15 344 -1.1
2019-Nov-20 15:00 344 -0.6
2019-Nov-20 14:45 344 -0.6
2019-Nov-20 14:30 344 -1.1
2019-Nov-20 14:15 344 -0.6
2019-Nov-20 14:00 344 -0.6
2019-Nov-20 13:45 344 -0.6
2019-Nov-20 13:30 344 -0.6
2019-Nov-20 13:15 344 -0.6
2019-Nov-20 13:00 344 -0.0
2019-Nov-20 12:45 344 -0.0
2019-Nov-20 12:30 344 -0.0
2019-Nov-20 12:15 344 0.6
2019-Nov-20 12:00 344 0.6
2019-Nov-20 11:45 344 0.6
2019-Nov-20 11:30 343 0.6
2019-Nov-20 11:15 342 1.1
2019-Nov-20 11:00 342 1.7
2019-Nov-20 10:45 342 2.2
2019-Nov-20 10:30 342 2.8
2019-Nov-20 10:15 342 2.8
2019-Nov-20 10:00 342 2.8
2019-Nov-20 09:45 342 3.3
2019-Nov-20 09:30 342 3.3
2019-Nov-20 09:15 344 3.9
2019-Nov-20 09:00 066 4.4
2019-Nov-20 08:45 051 0 gusting 2 4.4
2019-Nov-20 08:30 333 4.4
2019-Nov-20 08:15 358 4.4
2019-Nov-20 08:00 006 5.0
2019-Nov-20 07:45 308 0 gusting 1 5.0
2019-Nov-20 07:30 308 5.0
2019-Nov-20 07:15 308 5.0
2019-Nov-20 07:00 308 5.0
2019-Nov-20 06:45 308 5.0
2019-Nov-20 06:30 308 5.0
2019-Nov-20 06:15 308 4.4
2019-Nov-20 06:00 308 4.4
2019-Nov-20 05:45 308 4.4
2019-Nov-20 05:30 308 5.0
2019-Nov-20 05:15 308 4.4
2019-Nov-20 05:00 308 4.4
2019-Nov-20 04:45 308 4.4
2019-Nov-20 04:30 308 3.9
2019-Nov-20 04:15 308 3.9
2019-Nov-20 04:00 308 3.9
2019-Nov-20 03:45 308 4.4
2019-Nov-20 03:30 308 4.4
2019-Nov-20 03:15 308 5.0
2019-Nov-20 03:00 308 5.6
2019-Nov-20 02:45 308 6.1
2019-Nov-20 02:30 305 7.2
2019-Nov-20 02:15 305 7.2
2019-Nov-20 02:00 351 7.8
2019-Nov-20 01:45 310 8.3
2019-Nov-20 01:30 308 8.9
2019-Nov-20 01:15 334 0 gusting 4 8.9
2019-Nov-20 01:00 347 0 gusting 6 9.4
2019-Nov-20 00:45 344 0 gusting 4 9.4
2019-Nov-20 00:30 281 0 gusting 6 10.0
2019-Nov-20 00:15 287 0 gusting 3 10.0
2019-Nov-20 00:00 295 0 gusting 7 10.0
2019-Nov-19 23:45 276 10.6
2019-Nov-19 23:30 300 10.6
2019-Nov-19 23:15 326 0 gusting 6 10.6
2019-Nov-19 23:00 317 0 gusting 3 10.0
2019-Nov-19 22:45 299 0 gusting 3 10.6
2019-Nov-19 22:30 330 10.6
2019-Nov-19 22:15 011 0 gusting 5 10.0
2019-Nov-19 22:00 318 0 gusting 8 10.0
2019-Nov-19 21:45 304 1 gusting 7 10.0
2019-Nov-19 21:30 332 2 gusting 7 10.0
2019-Nov-19 21:15 273 1 gusting 8 10.6
2019-Nov-19 21:00 343 2 gusting 6 10.6
2019-Nov-19 20:45 292 1 gusting 6 11.1
2019-Nov-19 20:30 243 0 gusting 6 10.6
2019-Nov-19 20:15 347 0 gusting 4 10.6
2019-Nov-19 20:00 303 0 gusting 5 10.0
2019-Nov-19 19:45 301 1 gusting 5 9.4
2019-Nov-19 19:30 297 1 gusting 5 9.4
2019-Nov-19 19:15 357 0 gusting 5 8.9
2019-Nov-19 19:00 282 8.9
2019-Nov-19 18:45 336 1 gusting 5 8.9
2019-Nov-19 18:30 313 2 gusting 6 8.3
2019-Nov-19 18:15 310 1 gusting 6 8.3
2019-Nov-19 18:00 299 1 gusting 5 8.3
2019-Nov-19 17:45 328 2 gusting 5 8.3
2019-Nov-19 17:30 292 8.3
2019-Nov-19 17:15 304 8.3
2019-Nov-19 17:00 291 8.3
2019-Nov-19 16:45 301 1 gusting 5 8.3
2019-Nov-19 16:30 338 8.3
2019-Nov-19 16:15 329 8.3
2019-Nov-19 16:00 344 8.3
2019-Nov-19 15:45 324 8.3
2019-Nov-19 15:30 335 0 gusting 2 8.3
2019-Nov-19 15:15 330 8.3
2019-Nov-19 15:00 330 8.3
2019-Nov-19 14:45 311 8.3
2019-Nov-19 14:30 339 8.3
2019-Nov-19 14:15 315 8.3
2019-Nov-19 14:00 326 8.3
2019-Nov-19 13:45 321 0 gusting 4 8.3
2019-Nov-19 13:30 311 8.3
2019-Nov-19 13:15 310 1 gusting 6 8.9
2019-Nov-19 13:00 275 0 gusting 3 8.9
2019-Nov-19 12:45 274 0 gusting 2 8.9
2019-Nov-19 12:30 321 0 gusting 4 8.9
2019-Nov-19 12:15 283 0 gusting 3 8.9
2019-Nov-19 12:00 292 9.4
2019-Nov-19 11:45 218 0 gusting 3 9.4
2019-Nov-19 11:30 285 9.4
2019-Nov-19 11:15 285 9.4
2019-Nov-19 11:00 285 9.4
2019-Nov-19 10:45 285 9.4
2019-Nov-19 10:30 285 9.4
2019-Nov-19 10:15 285 9.4
2019-Nov-19 10:00 285 9.4
2019-Nov-19 09:45 285 9.4
2019-Nov-19 09:30 285 10.0
2019-Nov-19 09:15 285 10.0
2019-Nov-19 09:00 218 10.0
2019-Nov-19 08:45 220 10.0
2019-Nov-19 08:30 211 10.0
2019-Nov-19 08:15 049 10.0
2019-Nov-19 08:00 049 10.0